Philadelphia, PA

11:48 PM EST on February 07, 2016 (GMT -0500)
Philadelphia International

Weather History for KPHL - August, 2012

Change the Weather History Date:

Sunday, August 5, 2012

  Actual Average Record
Temperature  
Mean Temperature 86 °F 78 °F  
Max Temperature 98 °F 87 °F 98 °F (1930)
Min Temperature 74 °F 69 °F 52 °F (1951)
Degree Days  
Heating Degree Days 0 0  
Month to date heating degree days 0 0  
Since 1 June heating degree days 7 11  
Since 1 July heating degree days 0 0  
Cooling Degree Days 21 13  
Month to date cooling degree days 86 65  
Year to date cooling degree days 1047 822  
Since 1 June cooling degree days 883 731  
Growing Degree Days 36 (Base 50)    
Moisture  
Dew Point 72 °F    
Average Humidity 65    
Maximum Humidity 91    
Minimum Humidity 39    
Precipitation  
Precipitation 0.90 in 0.12 in 1.60 in (1888)
Month to date precipitation 1.36 0.61  
Year to date precipitation 16.90 25.13  
Snow  
Snow 0.00 in 0.00 in 0.00 in (1870)
Month to date snowfall 0.0 0.0  
Since 1 June snowfall 0.0 0.0  
Since 1 July snowfall 0.0 0.0  
Snow Depth 0.00 in    
Sea Level Pressure  
Sea Level Pressure 30.07 in    
Wind  
Wind Speed 12 mph (SSW)    
Max Wind Speed 36 mph    
Max Gust Speed 44 mph    
Visibility 7 miles    
Events Rain , Thunderstorm    
T = Trace of Precipitation, MM = Missing Value Source: NWS Daily Summary

Daily Weather History Graph

Daily Weather History Graph

Search for Another Location

Airport or City:

Trip Planner

Search our weather history database for the weather conditions in past years. The results will help you decide how hot, cold, wet, or windy it might be!

Date:

Astronomy

Aug. 05, 2012 Rise Set
Actual Time 6:03 AM EDT 8:09 PM EDT
Civil Twilight 5:33 AM EDT 8:39 PM EDT
Nautical Twilight 4:57 AM EDT 9:15 PM EDT
Astronomical Twilight 4:17 AM EDT 9:54 PM EDT
Moon 9:47 PM EDT (8/5) 9:49 AM EDT (8/5)
Length of Visible Light 15h 05m
Length of Day
14h 05m
Waning Gibbous, 86% of the Moon is Illuminated
Aug 5
Waning Gibbous
Aug 9
Last Quarter
Aug 17
New
Aug 24
First Quarter
Aug 31
Full

Hourly Weather History & Observations

Time (EDT) Temp. Heat Index Dew Point Humidity Pressure Visibility Wind Dir Wind Speed Gust Speed Precip Events Conditions
12:54 AM 78.1 °F - 73.9 °F 87% 30.18 in 10.0 mi South 5.8 mph - N/A   Partly Cloudy
1:54 AM 79.0 °F - 73.9 °F 84% 30.18 in 10.0 mi SSW 6.9 mph - N/A   Mostly Cloudy
2:54 AM 78.1 °F - 73.9 °F 87% 30.17 in 10.0 mi SSW 5.8 mph - N/A   Mostly Cloudy
3:54 AM 78.1 °F - 75.0 °F 90% 30.15 in 10.0 mi South 5.8 mph - N/A   Scattered Clouds
4:54 AM 78.1 °F - 75.0 °F 90% 30.14 in 10.0 mi South 5.8 mph - N/A   Scattered Clouds
5:54 AM 78.1 °F - 75.0 °F 90% 30.14 in 10.0 mi South 5.8 mph - N/A   Scattered Clouds
6:26 AM 78.8 °F - 75.2 °F 89% 30.15 in 8.0 mi SSW 4.6 mph - N/A   Scattered Clouds
6:54 AM 78.1 °F - 75.0 °F 90% 30.14 in 9.0 mi South 5.8 mph - N/A   Scattered Clouds
7:11 AM 78.8 °F - 75.2 °F 89% 30.14 in 10.0 mi South 8.1 mph - N/A   Scattered Clouds
7:54 AM 80.1 °F 85.1 °F 75.0 °F 85% 30.14 in 10.0 mi SSW 9.2 mph - N/A   Scattered Clouds
8:54 AM 82.9 °F 89.4 °F 73.9 °F 74% 30.13 in 10.0 mi SSW 10.4 mph - N/A   Mostly Cloudy
9:54 AM 84.9 °F 91.4 °F 73.0 °F 67% 30.12 in 10.0 mi SSW 13.8 mph - N/A   Mostly Cloudy
10:54 AM 90.0 °F 96.9 °F 72.0 °F 55% 30.12 in 10.0 mi SSW 13.8 mph 21.9 mph N/A   Mostly Cloudy
11:54 AM 90.0 °F 96.4 °F 71.1 °F 54% 30.11 in 10.0 mi SSW 17.3 mph 25.3 mph N/A   Mostly Cloudy
12:54 PM 93.0 °F 99.0 °F 70.0 °F 47% 30.08 in 10.0 mi SSW 20.7 mph - N/A   Mostly Cloudy
1:54 PM 95.0 °F 99.5 °F 68.0 °F 41% 30.05 in 10.0 mi SW 20.7 mph 34.5 mph N/A   Scattered Clouds
2:54 PM 95.0 °F 99.0 °F 66.9 °F 40% 30.02 in 10.0 mi SSW 24.2 mph 33.4 mph N/A   Scattered Clouds
3:54 PM 95.0 °F 100.7 °F 69.1 °F 43% 30.00 in 10.0 mi SSW 21.9 mph 26.5 mph N/A   Scattered Clouds
4:54 PM 93.0 °F 97.9 °F 69.1 °F 45% 30.00 in 10.0 mi SW 21.9 mph 33.4 mph N/A   Mostly Cloudy
5:54 PM 95.0 °F 100.7 °F 69.1 °F 43% 30.00 in 10.0 mi SW 18.4 mph 31.1 mph N/A   Mostly Cloudy
6:29 PM 86.0 °F 88.2 °F 66.2 °F 51% 30.04 in 7.0 mi WNW 28.8 mph 35.7 mph 0.00 in Rain Light Rain
6:31 PM 84.2 °F 87.3 °F 68.0 °F 58% 30.06 in 3.0 mi West 29.9 mph 43.7 mph 0.00 in Rain Heavy Rain
6:34 PM 80.6 °F 83.9 °F 69.8 °F 70% 30.06 in 1.0 mi West 33.4 mph 43.7 mph 0.00 in Rain Heavy Rain
6:39 PM 75.2 °F - 71.6 °F 89% 30.05 in 1.0 mi West 24.2 mph 43.7 mph 0.10 in Rain , Thunderstorm Heavy Thunderstorms and Rain
6:54 PM 73.9 °F - 71.1 °F 91% 30.04 in 1.5 mi WSW 12.7 mph - 0.31 in Rain , Thunderstorm Thunderstorms and Rain
7:00 PM 73.4 °F - 71.6 °F 94% 30.04 in 3.0 mi WSW 10.4 mph - 0.02 in Rain , Thunderstorm Thunderstorms and Rain
7:10 PM 75.2 °F - 71.6 °F 89% 30.05 in 6.0 mi WSW 13.8 mph - 0.02 in Rain , Thunderstorm Light Thunderstorms and Rain
7:19 PM 75.2 °F - 71.6 °F 89% 30.05 in 6.0 mi SW 13.8 mph - 0.02 in Rain Light Rain
7:42 PM 75.2 °F - 71.6 °F 89% 30.03 in 6.0 mi WSW 8.1 mph - 0.05 in Rain , Thunderstorm Light Thunderstorms and Rain
7:54 PM 75.9 °F - 72.0 °F 87% 30.03 in 6.0 mi SW 8.1 mph - 0.06 in Rain , Thunderstorm Light Thunderstorms and Rain
8:05 PM 75.2 °F - 71.6 °F 89% 30.02 in 8.0 mi SW 6.9 mph - 0.01 in Rain Light Rain
8:39 PM 73.4 °F - 71.6 °F 94% 30.03 in 10.0 mi SSE 4.6 mph - 0.01 in Rain Light Rain
8:54 PM 75.0 °F - 72.0 °F 90% 30.03 in 10.0 mi SSE 3.5 mph - 0.01 in Rain Light Rain
9:54 PM 75.0 °F - 72.0 °F 90% 30.04 in 10.0 mi SSW 3.5 mph - 0.01 in Rain Light Rain
10:16 PM 75.2 °F - 73.4 °F 94% 30.04 in 6.0 mi SSW 6.9 mph - 0.00 in Rain Rain
10:28 PM 75.2 °F - 73.4 °F 94% 30.04 in 10.0 mi SSE 6.9 mph - 0.02 in   Mostly Cloudy
10:54 PM 75.0 °F - 72.0 °F 90% 30.04 in 10.0 mi South 5.8 mph - 0.02 in   Mostly Cloudy
11:28 PM 75.2 °F - 73.4 °F 94% 30.04 in 9.0 mi SSW 6.9 mph - 0.00 in Rain Light Rain
11:38 PM 75.2 °F - 73.4 °F 94% 30.04 in 5.0 mi SSW 6.9 mph - 0.00 in Rain Rain
11:40 PM 75.2 °F - 73.4 °F 94% 30.04 in 3.0 mi SW 8.1 mph - 0.00 in Rain Rain
11:42 PM 75.2 °F - 73.4 °F 94% 30.04 in 5.0 mi SW 5.8 mph - 0.00 in Rain Rain
11:44 PM 75.2 °F - 73.4 °F 94% 30.04 in 2.5 mi SW 10.4 mph 20.7 mph 0.05 in Rain Rain
11:48 PM 75.2 °F - 73.4 °F 94% 30.05 in 2.5 mi SSW 11.5 mph 20.7 mph 0.12 in Rain Rain
11:50 PM 75.2 °F - 73.4 °F 94% 30.05 in 1.5 mi SW 17.3 mph 21.9 mph 0.21 in Rain Heavy Rain
11:54 PM 75.9 °F - 73.0 °F 91% 30.05 in 1.8 mi SW 19.6 mph 25.3 mph 0.26 in Rain Heavy Rain
11:56 PM 75.2 °F - 73.4 °F 94% 30.05 in 1.8 mi SW 17.3 mph 25.3 mph 0.02 in Rain Heavy Rain